Weather History for Clinton, BC

Change the Weather History Date:

Wednesday, June 25, 2014

  Actual Average Record
Temperature  
Mean Temperature 58 °F -  
Max Temperature 72 °F 65 °F 86 °F (2006)
Min Temperature 44 °F 42 °F 35 °F (2001)
Degree Days  
Heating Degree Days 7    
Growing Degree Days 8 (Base 50)    
Moisture  
Dew Point 46 °F    
Average Humidity 85    
Maximum Humidity 100    
Minimum Humidity 23    
Precipitation  
Precipitation 0.04 in - - ()
Sea Level Pressure  
Sea Level Pressure 30.01 in    
Wind  
Wind Speed 2 mph ()    
Max Wind Speed 10 mph    
Max Gust Speed 17 mph    
Visibility 4.8 miles    
Events      
Averages and records for this station are not official NWS values.
T = Trace of Precipitation, MM = Missing Value Source: Averaged Metar Reports

Daily Weather History Graph

Daily Weather History Graph

Search for Another Location

Airport:

Trip Planner

Search our weather history database for the weather conditions in past years. The results will help you decide how hot, cold, wet, or windy it might be!

Date:

Astronomy

Jun. 25, 2014 Rise Set
Actual Time 4:51 AM PDT 9:25 PM PDT
Civil Twilight 4:05 AM PDT 10:12 PM PDT
Nautical Twilight 2:53 AM PDT 11:23 PM PDT
Astronomical Twilight 1:41 AM PDT 12:36 AM PDT
Moon 3:59 AM PDT (6/25) 7:50 PM PDT (6/25)
Length of Visible Light 18h 07m
Length of Day
16h 33m
Waning Crescent, 2% of the Moon is Illuminated
Jun 25
Waning Crescent
Jun 27
New
Jul 5
First Quarter
Jul 12
Full
Jul 18
Last Quarter

Hourly Weather History & Observations

Time (PDT) Temp. Windchill Dew Point Humidity Pressure Visibility Wind Dir Wind Speed Gust Speed Precip Events Conditions
12:00 AM 44.6 °F - 42.8 °F 93% 30.08 in 9.0 mi Calm Calm - N/A   Unknown
1:00 AM 44.6 °F 43.1 °F 44.6 °F 100% 30.08 in 9.0 mi SW 3.5 mph - N/A   Unknown
2:00 AM 45 °F - 44 °F 95% 30.07 in 9 mi South 3.5 mph - -  
2:00 AM 44.6 °F - 44.6 °F 100% 30.07 in 9.0 mi South 2.3 mph - N/A   Unknown
3:00 AM 44.6 °F - 44.6 °F 100% 30.06 in 9.0 mi SSW 2.3 mph - N/A   Unknown
4:00 AM 44.6 °F - 44.6 °F 100% 30.06 in 9.0 mi SW 2.3 mph - N/A   Unknown
4:27 AM 44.6 °F - 44.6 °F 100% 30.05 in 9.0 mi Calm Calm - N/A   Unknown
4:41 AM 44.6 °F - 44.6 °F 100% 30.05 in 2.0 mi Calm Calm - N/A   Unknown
4:44 AM 44.6 °F - 44.6 °F 100% 30.05 in 1.2 mi Calm Calm - N/A   Unknown
4:46 AM 44.6 °F - 44.6 °F 100% 30.05 in 0.8 mi Calm Calm - N/A   Unknown
4:47 AM 44.6 °F - 44.6 °F 100% 30.05 in 0.6 mi Calm Calm - N/A   Unknown
4:50 AM 46.4 °F - 44.6 °F 93% 30.05 in 0.4 mi North 2.3 mph - N/A   Unknown
4:54 AM 46.4 °F - 44.6 °F 93% 30.05 in 0.1 mi North 2.3 mph - N/A   Unknown
5:00 AM 45 °F - 45 °F 100% 30.06 in 0 mi North 2.3 mph - -  
5:00 AM 44.6 °F - 44.6 °F 100% 30.06 in 0.1 mi NNW 2.3 mph - N/A   Unknown
5:05 AM 44.6 °F - 44.6 °F 100% 30.05 in 0.1 mi Calm Calm - N/A   Unknown
5:08 AM 44.6 °F - 44.6 °F 100% 30.05 in 0.5 mi Calm Calm - N/A   Unknown
5:12 AM 44.6 °F - 44.6 °F 100% 30.05 in 1.0 mi Calm Calm - N/A   Unknown
5:16 AM 44.6 °F - 44.6 °F 100% 30.05 in 3.0 mi Calm Calm - N/A   Unknown
5:46 AM 44.6 °F - 44.6 °F 100% 30.04 in 2.5 mi Calm Calm - N/A   Unknown
5:47 AM 46.4 °F - 44.6 °F 93% 30.04 in 1.2 mi Calm Calm - N/A   Unknown
5:48 AM 46.4 °F - 44.6 °F 93% 30.04 in 0.8 mi NE 2.3 mph - N/A   Unknown
5:49 AM 46.4 °F - 44.6 °F 93% 30.04 in 0.5 mi NE 2.3 mph - N/A   Unknown
5:50 AM 46.4 °F - 44.6 °F 93% 30.04 in 0.4 mi NE 2.3 mph - N/A   Unknown
5:52 AM 46.4 °F - 44.6 °F 93% 30.04 in 0.1 mi Calm Calm - N/A   Unknown
6:00 AM 46.4 °F - 46.4 °F 100% 30.05 in 0.1 mi Calm Calm - N/A   Unknown
6:14 AM 46.4 °F - 46.4 °F 100% 30.04 in 0.5 mi Calm Calm - N/A   Unknown
6:16 AM 46.4 °F - 46.4 °F 100% 30.04 in 1.0 mi Calm Calm - N/A   Unknown
6:32 AM 46.4 °F - 46.4 °F 100% 30.04 in 0.8 mi Calm Calm - N/A   Unknown
6:33 AM 46.4 °F - 46.4 °F 100% 30.04 in 0.6 mi North 2.3 mph - N/A   Unknown
6:47 AM 48.2 °F - 46.4 °F 93% 30.04 in 1.0 mi Calm Calm - N/A   Unknown
6:58 AM 48.2 °F - 46.4 °F 93% 30.04 in 3.0 mi Calm Calm - N/A   Unknown
7:00 AM 48.2 °F - 46.4 °F 93% 30.05 in 3.0 mi Calm Calm - N/A   Unknown
7:08 AM 48.2 °F - 48.2 °F 100% 30.04 in 9.0 mi Calm Calm - N/A   Unknown
7:09 AM 48.2 °F - 48.2 °F 100% 30.04 in 9.0 mi Calm Calm - N/A   Unknown
7:26 AM 50.0 °F - 50.0 °F 100% 30.04 in 2.2 mi East 2.3 mph - N/A   Unknown
7:28 AM 50.0 °F - 48.2 °F 94% 30.04 in 1.0 mi Calm Calm - N/A   Unknown
7:29 AM 50.0 °F - 48.2 °F 94% 30.04 in 0.6 mi Calm Calm - N/A   Unknown
7:32 AM 50.0 °F - 50.0 °F 100% 30.04 in 0.4 mi Calm Calm - N/A   Unknown
7:37 AM 50.0 °F - 48.2 °F 94% 30.04 in 0.1 mi SE 2.3 mph - N/A   Unknown
8:00 AM 49 °F - 49 °F 100% 30.05 in 0 mi SE 2.3 mph - -  
8:00 AM 50.0 °F - 50.0 °F 100% 30.05 in 0.1 mi SSE 2.3 mph - N/A   Unknown
8:18 AM 51.8 °F - 50.0 °F 94% 30.04 in 0.5 mi Calm Calm - N/A   Unknown
8:21 AM 51.8 °F - 50.0 °F 94% 30.04 in 1.0 mi ESE 2.3 mph - N/A   Unknown
8:25 AM 50.0 °F - 50.0 °F 100% 30.04 in 3.0 mi SSE 2.3 mph - N/A   Unknown
8:28 AM 53.6 °F - 51.8 °F 94% 30.04 in 9.0 mi Calm Calm - N/A   Unknown
8:29 AM 51.8 °F - 50.0 °F 94% 30.04 in 9.0 mi Calm Calm - N/A   Unknown
8:53 AM 55.4 °F - 51.8 °F 88% 30.03 in 9.0 mi ESE 3.5 mph - N/A   Unknown
8:57 AM 55.4 °F - 51.8 °F 88% 30.03 in 9.0 mi SE 3.5 mph - N/A   Unknown
9:00 AM 53.6 °F - 50.0 °F 88% 30.06 in 8.0 mi SE 2.3 mph - N/A   Unknown
9:07 AM 55.4 °F - 51.8 °F 88% 30.03 in 9.0 mi SE 2.3 mph - N/A   Unknown
10:00 AM 57.2 °F - 50.0 °F 77% 30.04 in 9.0 mi Calm Calm - N/A   Unknown
11:00 AM 60 °F - 47 °F 52% 30.02 in 9 mi SSE 3.5 mph - -  
11:00 AM 60.8 °F - 46.4 °F 59% 30.02 in 9.0 mi South 3.5 mph - N/A   Unknown
12:00 PM 60.8 °F - 41.0 °F 48% 30.01 in 9.0 mi South 2.3 mph - N/A   Unknown
1:00 PM 66.2 °F - 50.0 °F 56% 29.97 in 9.0 mi ESE 2.3 mph - N/A   Unknown
2:00 PM 66 °F - 46 °F 37% 29.95 in 9 mi ESE 5.8 mph - -  
2:00 PM 66.2 °F - 46.4 °F 49% 29.95 in 9.0 mi ESE 4.6 mph - N/A   Unknown
4:00 PM 69.8 °F - 46.4 °F 43% 29.89 in 9.0 mi East 5.8 mph - N/A   Unknown
5:00 PM 70 °F - 40 °F 23% 29.87 in 9 mi South 6.9 mph - -  
5:00 PM 69.8 °F - 41.0 °F 35% 29.87 in 9.0 mi South 6.9 mph - N/A   Unknown
6:00 PM 68.0 °F - 41.0 °F 37% 29.86 in 9.0 mi Calm Calm - N/A   Unknown
7:00 PM 64.4 °F - 44.6 °F 49% 29.84 in 9.0 mi South 2.3 mph - N/A   Unknown
8:00 PM 61 °F - 50 °F 59% 29.84 in 9 mi SSW 2.3 mph - -  
8:00 PM 60.8 °F - 50.0 °F 68% 29.84 in 9.0 mi South 2.3 mph - N/A   Unknown
9:00 PM 55.4 °F - 48.2 °F 77% 29.84 in 9.0 mi Calm Calm - N/A   Unknown
10:00 PM 57.2 °F - 46.4 °F 67% 29.83 in 9.0 mi WNW 8.1 mph - N/A   Unknown
11:00 PM 56 °F - 45 °F 58% 29.84 in 9 mi NW 10.4 mph - -  
11:00 PM 57.2 °F - 44.6 °F 63% 29.84 in 9.0 mi NW 10.4 mph 17.3 mph N/A   Unknown